Regional Weather Roundup
Issued by NWS

Home | Current Version | Previous Version | Text Only | Print | Product List | Glossary Off
Versions: 1 2 3 4 5 6 7 8 9 10 11 12 13 14 15 16 17 18 19 20 21 22 23 24 25 26 27 28 29 30 31 32 33 34 35 36 37 38 39 40 41 42 43 44 45 46 47 48 49 50

000
ASUS45 KPSR 260710
RWRAZ

ARIZONA REGIONAL HOURLY WEATHER ROUNDUP
NATIONAL WEATHER SERVICE TUCSON AZ
1200 AM MST FRI MAY 26 2017

NOTE: FAIR INDICATES FEW OR NO CLOUDS BELOW 12,000 FEET WITH NO
SIGNIFICANT WEATHER AND/OR OBSTRUCTIONS TO VISIBILITY.

AZZ001>003-036-260800-
NORTHWEST ARIZONA

CITY           SKY/WX    TMP DP  RH WIND       PRES   REMARKS
BULLHEAD CITY  CLEAR     88  21   8 SE18G25   29.58S
KINGMAN        CLEAR     73  26  17 S20G29    29.77R
$$

AZZ004>008-015-016-018-260800-
NORTH CENTRAL ARIZONA

CITY           SKY/WX    TMP DP  RH WIND       PRES   REMARKS
GRAND CANYON   CLEAR     56  12  17 SW12      29.96S
WILLIAMS       SUNNY     59  19  21 S12G23    29.99F
PRESCOTT       CLEAR     65  23  20 S10G18    29.93S
FLAGSTAFF      CLEAR     55  20  25 SW15      29.99S
PAYSON         SUNNY     64  18  16 SW3       30.00R
PAGE           CLEAR     73  14  10 S9        29.75R
$$

AZZ009>014-017-260800-
NORTHEAST ARIZONA

CITY           SKY/WX    TMP DP  RH WIND       PRES   REMARKS
WINSLOW        CLEAR     60  18  19 S12       29.91S
SAINT JOHNS    CLEAR     65  15  14 SW10G21   29.98R
WINDOW ROCK    CLEAR     54  13  19 CALM      30.02R
SHOW LOW       CLEAR     55  14  19 S13G20    30.02S
$$

AZZ023-260800-
GREATER PHOENIX AREA

CITY           SKY/WX    TMP DP  RH WIND       PRES   REMARKS
PHOENIX        PTCLDY    83  24  11 SE6       29.73R
BUCKEYE        SUNNY     75  27  16 S5        29.74S
LUKE AFB       CLEAR     76  33  20 SW5       29.73R
DEER VALLEY    CLEAR     76  23  14 CALM      29.75R
SCOTTSDALE     CLEAR     80  23  12 S7        29.77R
$$

AZZ027-028-260800-
SOUTHWEST MARICOPA COUNTY AND PINAL COUNTY

CITY           SKY/WX    TMP DP  RH WIND       PRES   REMARKS
CASA GRANDE    CLEAR     79  25  13 S10       29.78S
$$

AZZ503-504-507>509-260800-
SOUTHEAST ARIZONA

CITY           SKY/WX    TMP DP  RH WIND       PRES   REMARKS
TUCSON         MOCLDY    78  18  10 SW3       29.89S
DAVIS-MONTHAN  CLEAR     76  18  11 S6        29.89S
NOGALES        CLEAR     68  20  16 CALM      29.98R
SIERRA VISTA   PTCLDY    69  26  20 S7        30.03S
DOUGLAS        LGT RAIN  72  27  18 SW14      30.00R
SAFFORD        PTCLDY    73  17  12 W5        29.86R
$$

AZZ020-021-025-026-031-260800-
SOUTHWEST ARIZONA

CITY           SKY/WX    TMP DP  RH WIND       PRES   REMARKS
YUMA           CLEAR     74  37  26 CALM      29.70S
$$

CAZ031-033-041-043-047-048-061-260800-
SOUTHERN CALIFORNIA

CITY           SKY/WX    TMP DP  RH WIND       PRES   REMARKS
DOWNTOWN L.A.  CLOUDY    63  52  67 CALM      29.92R
L.A. AIRPORT   MOCLDY    61  54  77 W7        29.92S
SAN DIEGO      CLOUDY    64  50  60 SW3       29.96R
BURBANK        CLOUDY    59  49  69 S7        29.92R
ONTARIO        CLOUDY    59  49  69 W9        29.92R
RIVERSIDE      CLOUDY    59  51  75 VRB7      29.92R
PALM SPRINGS   CLEAR     73  42  32 NW20      29.67R
EL CENTRO NAS  CLEAR     68  42  38 W29G39      N/A
IMPERIAL       LGT RAIN  67  45  45 W15G26    29.67R
BLYTHE         CLEAR     74  45  35 SE14      29.66R
NEEDLES        CLEAR     87  23   9 SW14      29.61R
$$

NVZ020-UTZ003-260800-
SOUTHERN NEVADA-UTAH

CITY           SKY/WX    TMP DP  RH WIND       PRES   REMARKS
LAS VEGAS      PTCLDY    80  18  10 SW16G24   29.59S
SALT LAKE CITY CLEAR     58  35  42 CALM      29.72F
$$

NMZ009-TXZ055-260800-
NEW MEXICO-WEST TEXAS

CITY           SKY/WX    TMP DP  RH WIND       PRES   REMARKS
ALBUQUERQUE    PTCLDY    69   9   9 SW15G23   29.95R
EL PASO        PTCLDY    81  24  12 W18G25    29.91S
$$


........................KEY........................
SKY/WX - SKY CONDITION/WEATHER
TMP    - TEMPERATURE IN FAHRENHEIT
DP     - DEWPOINT IN FAHRENHEIT
RH     - RELATIVE HUMIDITY IN PERCENT
WIND   - DIRECTION AND SPEED IN MILES PER HOUR (MPH)
VRB    - VARIABLE WIND DIRECTION
PRES   - MEAN SEA LEVEL PRESSURE IN INCHES OF MERCURY
         F - FALLING PRESSURE   R - RISING PRESSURE
         S - STEADY PRESSURE
VSB    - VISIBILITY IN MILES
HX     - HEAT INDEX IN FAHRENHEIT
WCI    - WIND CHILL INDEX IN FAHRENHEIT
TC     - TEMPERATURE IN CELSIUS WHICH IS ALSO KNOWN AS
         TEMPERATURE IN CENTIGRADE
AFB    - AIR FORCE BASE
         LUKE AFB IS LUKE AIR FORCE BASE
         DAVIS-MONTHAN IS DAVIS-MONTHAN AIR FORCE BASE
NAS    - NAVAL AIR STATION
         EL CENTRO NAS IS EL CENTRO NAVAL AIR STATION
N/A    - NOT AVAILABLE




USA.gov is the U.S. government's official web portal to all federal, state and local government web resources and services.